Fort Polk, LA

7:27 AM CDT on May 27, 2017 (GMT -0500)
Fort Polk

Weather History for KBKB - February, 2013

Change the Weather History Date:

Friday, February 15, 2013

  Actual Average (KPOE) Record (KPOE)
Temperature  
Mean Temperature 50 °F -  
Max Temperature 64 °F 62 °F 78 °F (2000)
Min Temperature 36 °F 43 °F 28 °F (2007)
Degree Days  
Heating Degree Days 15    
Moisture  
Dew Point 37 °F    
Average Humidity 65    
Maximum Humidity 93    
Minimum Humidity 35    
Precipitation  
Precipitation 0.00 in - - ()
Sea Level Pressure  
Sea Level Pressure 30.28 in    
Wind  
Wind Speed 2 mph (North)    
Max Wind Speed 9 mph    
Max Gust Speed 16 mph    
Visibility 10 miles    
Events      
Averages and records for this station are not official NWS values.
T = Trace of Precipitation, MM = Missing Value Source: NWS Daily Summary

Daily Weather History Graph

Daily Weather History Graph

Search for Another Location

Airport or City:

Trip Planner

Search our weather history database for the weather conditions in past years. The results will help you decide how hot, cold, wet, or windy it might be!

Date:

Astronomy

Feb. 15, 2013 Rise Set
Actual Time 6:52 AM CST 5:59 PM CST
Civil Twilight 6:27 AM CST 6:24 PM CST
Nautical Twilight 5:59 AM CST 6:52 PM CST
Astronomical Twilight 5:31 AM CST 7:20 PM CST
Moon 9:54 AM CST (2/15) 11:33 PM CST (2/15)
Length of Visible Light 11h 56m
Length of Day
11h 07m
Waxing Crescent, 30% of the Moon is Illuminated
Feb 15
Waxing Crescent
Feb 17
First Quarter
Feb 25
Full
Mar 4
Last Quarter
Mar 11
New

Hourly Weather History & Observations

Time (CST) Temp. Dew Point Humidity Pressure Visibility Wind Dir Wind Speed Gust Speed Precip Events Conditions
12:54 AM 39.0 °F 37.0 °F 93% 30.19 in 10.0 mi Calm Calm - N/A   Clear
1:54 AM 37.9 °F 36.0 °F 93% 30.19 in 10.0 mi Calm Calm - N/A   Clear
2:54 AM 37.9 °F 35.1 °F 89% 30.19 in 9.0 mi Calm Calm - N/A   Clear
3:54 AM 37.0 °F 34.0 °F 89% 30.19 in 10.0 mi Calm Calm - N/A   Clear
4:54 AM 36.0 °F 34.0 °F 93% 30.19 in 10.0 mi Calm Calm - N/A   Clear
5:54 AM 36.0 °F 34.0 °F 93% 30.21 in 10.0 mi Calm Calm - N/A   Clear
6:54 AM 37.0 °F 34.0 °F 89% 30.24 in 10.0 mi Calm Calm - N/A   Clear
7:54 AM 42.1 °F 39.9 °F 92% 30.25 in 9.0 mi Calm Calm - N/A   Clear
8:54 AM 52.0 °F 39.9 °F 63% 30.28 in 10.0 mi Variable 3.5 mph - N/A   Clear
9:54 AM 57.0 °F 39.0 °F 51% 30.27 in 10.0 mi Variable 3.5 mph - N/A   Clear
10:54 AM 61.0 °F 39.0 °F 44% 30.27 in 10.0 mi Calm Calm - N/A   Clear
11:54 AM 63.0 °F 37.9 °F 40% 30.25 in 10.0 mi Variable 5.8 mph - N/A   Clear
12:54 PM 63.0 °F 37.0 °F 38% 30.24 in 10.0 mi Variable 4.6 mph - N/A   Clear
1:54 PM 64.0 °F 37.0 °F 37% 30.21 in 10.0 mi Variable 6.9 mph - N/A   Partly Cloudy
2:54 PM 64.0 °F 36.0 °F 35% 30.21 in 10.0 mi Variable 6.9 mph - N/A   Scattered Clouds
3:54 PM 63.0 °F 36.0 °F 37% 30.21 in 10.0 mi Variable 3.5 mph - N/A   Clear
4:54 PM 57.9 °F 39.0 °F 49% 30.23 in 10.0 mi North 9.2 mph 16.1 mph N/A   Clear
5:54 PM 53.1 °F 37.9 °F 57% 30.25 in 10.0 mi Variable 5.8 mph - N/A   Partly Cloudy
6:54 PM 50.0 °F 37.9 °F 63% 30.27 in 10.0 mi Variable 3.5 mph - N/A   Mostly Cloudy
7:54 PM 50.0 °F 37.9 °F 63% 30.30 in 10.0 mi Variable 3.5 mph - N/A   Overcast
8:54 PM 48.9 °F 37.9 °F 66% 30.31 in 10.0 mi Calm Calm - N/A   Overcast
9:54 PM 48.0 °F 37.9 °F 68% 31.05 in 10.0 mi Variable 3.5 mph - N/A   Mostly Cloudy
10:54 PM 46.9 °F 37.0 °F 68% 30.34 in 10.0 mi Variable 4.6 mph - N/A   Overcast
11:54 PM 46.9 °F 33.1 °F 59% 30.34 in 10.0 mi Variable 4.6 mph - N/A   Overcast